Station Historical Data
Daily Summary for October 5, 2017 Units:  English    Metric   Both
Next Day »
Daily Weekly Monthly Yearly Custom
  High: Low: Average:
Temperature: 70.8 °F 51.0 °F 59.4 °F
Dew Point: 39.0 °F 27.4 °F 34.8 °F
Humidity: 49% 21% 41%
Wind Speed: 13.0mph 0.0mph 1.1mph
Wind Gust: 16.0mph - -
Wind- - SSE
Pressure: 30.07 in 30.01 in -
Precipitation: 0.00 in    
Historical Graphs
 
 
Tabular Data for October 5, 2017
Time Temperature Dew Point Pressure Wind Wind Speed Wind Gust Humidity Rainfall Rate (Hourly) solar Conditions
00:03 53.5 °F 33.8 °F 30.07 in Calm     47% 0.00 in 0.00 W/m2
00:08 53.4 °F 33.7 °F 30.07 in Calm     47% 0.00 in 0.00 W/m2
00:13 53.3 °F 33.6 °F 30.07 in Calm     47% 0.00 in 0.00 W/m2
00:18 53.3 °F 33.6 °F 30.07 in Calm     47% 0.00 in 0.00 W/m2
00:23 53.2 °F 33.5 °F 30.06 in Calm     47% 0.00 in 0.00 W/m2
00:33 53.0 °F 33.8 °F 30.06 in Calm   4.0 mph 48% 0.00 in 0.00 W/m2
00:38 52.9 °F 33.8 °F 30.06 in Calm   5.0 mph 48% 0.00 in 0.00 W/m2
00:43 52.8 °F 33.7 °F 30.06 in Calm   5.0 mph 48% 0.00 in 0.00 W/m2
00:48 52.8 °F 33.7 °F 30.06 in Calm   4.0 mph 48% 0.00 in 0.00 W/m2
00:53 52.8 °F 33.7 °F 30.06 in Calm     48% 0.00 in 0.00 W/m2
00:58 52.7 °F 33.6 °F 30.06 in Calm   2.0 mph 48% 0.00 in 0.00 W/m2
01:03 52.7 °F 33.6 °F 30.06 in Calm   2.0 mph 48% 0.00 in 0.00 W/m2
01:08 52.6 °F 33.5 °F 30.07 in Calm   4.0 mph 48% 0.00 in 0.00 W/m2
01:13 52.6 °F 33.5 °F 30.06 in East 6.0 mph 6.0 mph 48% 0.00 in 0.00 W/m2
01:18 52.5 °F 33.4 °F 30.06 in Calm   6.0 mph 48% 0.00 in 0.00 W/m2
01:23 52.4 °F 33.3 °F 30.06 in Calm     48% 0.00 in 0.00 W/m2
01:28 52.4 °F 33.3 °F 30.06 in Calm   6.0 mph 48% 0.00 in 0.00 W/m2
01:33 52.3 °F 33.2 °F 30.06 in Calm   6.0 mph 48% 0.00 in 0.00 W/m2
01:38 52.2 °F 33.1 °F 30.06 in Calm   5.0 mph 48% 0.00 in 0.00 W/m2
01:43 52.2 °F 33.6 °F 30.06 in Calm   1.0 mph 49% 0.00 in 0.00 W/m2
01:48 52.1 °F 33.5 °F 30.06 in Calm   7.0 mph 49% 0.00 in 0.00 W/m2
01:53 52.0 °F 33.5 °F 30.06 in Calm     49% 0.00 in 0.00 W/m2
01:58 52.0 °F 32.9 °F 30.06 in Calm   6.0 mph 48% 0.00 in 0.00 W/m2
02:04 51.9 °F 32.8 °F 30.07 in Calm   5.0 mph 48% 0.00 in 0.00 W/m2
02:09 51.9 °F 32.8 °F 30.07 in Calm   1.0 mph 48% 0.00 in 0.00 W/m2
02:14 51.9 °F 33.4 °F 30.07 in Calm     49% 0.00 in 0.00 W/m2
02:19 51.8 °F 33.3 °F 30.06 in Calm   1.0 mph 49% 0.00 in 0.00 W/m2
02:24 51.8 °F 33.3 °F 30.06 in Calm     49% 0.00 in 0.00 W/m2
02:29 51.7 °F 33.2 °F 30.06 in Calm     49% 0.00 in 0.00 W/m2
02:34 51.7 °F 33.2 °F 30.06 in Calm     49% 0.00 in 0.00 W/m2
02:39 51.7 °F 33.2 °F 30.06 in Calm   1.0 mph 49% 0.00 in 0.00 W/m2
02:44 51.7 °F 33.2 °F 30.06 in East 4.0 mph 6.0 mph 49% 0.00 in 0.00 W/m2
02:49 51.6 °F 33.1 °F 30.05 in Calm   5.0 mph 49% 0.00 in 0.00 W/m2
02:54 51.6 °F 33.1 °F 30.05 in Calm   8.0 mph 49% 0.00 in 0.00 W/m2
02:59 51.6 °F 33.1 °F 30.06 in ESE 5.0 mph 6.0 mph 49% 0.00 in 0.00 W/m2
03:04 51.5 °F 33.0 °F 30.06 in Calm   7.0 mph 49% 0.00 in 0.00 W/m2
03:14 51.5 °F 33.0 °F 30.06 in Calm   5.0 mph 49% 0.00 in 0.00 W/m2
03:19 51.4 °F 32.9 °F 30.06 in Calm     49% 0.00 in 0.00 W/m2
03:24 51.4 °F 32.9 °F 30.05 in Calm   6.0 mph 49% 0.00 in 0.00 W/m2
03:29 51.4 °F 32.9 °F 30.06 in Calm   7.0 mph 49% 0.00 in 0.00 W/m2
03:34 51.3 °F 32.8 °F 30.05 in Calm   7.0 mph 49% 0.00 in 0.00 W/m2
03:39 51.3 °F 32.8 °F 30.05 in Calm   6.0 mph 49% 0.00 in 0.00 W/m2
03:44 51.3 °F 32.8 °F 30.05 in Calm   5.0 mph 49% 0.00 in 0.00 W/m2
03:49 51.3 °F 32.8 °F 30.05 in Calm   9.0 mph 49% 0.00 in 0.00 W/m2
03:54 51.3 °F 32.8 °F 30.05 in Calm   1.0 mph 49% 0.00 in 0.00 W/m2
03:59 51.3 °F 32.8 °F 30.05 in ESE 6.0 mph 7.0 mph 49% 0.00 in 0.00 W/m2
04:04 51.2 °F 32.7 °F 30.05 in Calm   7.0 mph 49% 0.00 in 0.00 W/m2
04:09 51.2 °F 32.7 °F 30.05 in Calm   9.0 mph 49% 0.00 in 0.00 W/m2
04:14 51.3 °F 32.8 °F 30.05 in ESE 1.0 mph 9.0 mph 49% 0.00 in 0.00 W/m2
04:19 51.3 °F 32.8 °F 30.05 in East 8.0 mph 11.0 mph 49% 0.00 in 0.00 W/m2
04:24 51.3 °F 32.8 °F 30.05 in Calm   8.0 mph 49% 0.00 in 0.00 W/m2
04:29 51.3 °F 32.8 °F 30.05 in East 7.0 mph 9.0 mph 49% 0.00 in 0.00 W/m2
04:39 51.3 °F 32.8 °F 30.05 in Calm   9.0 mph 49% 0.00 in 0.00 W/m2
04:44 51.3 °F 32.8 °F 30.05 in East 6.0 mph 9.0 mph 49% 0.00 in 0.00 W/m2
04:49 51.3 °F 32.8 °F 30.06 in Calm   12.0 mph 49% 0.00 in 0.00 W/m2
04:54 51.3 °F 32.8 °F 30.06 in East 1.0 mph 9.0 mph 49% 0.00 in 0.00 W/m2
04:59 51.3 °F 32.8 °F 30.06 in Calm   8.0 mph 49% 0.00 in 0.00 W/m2
05:04 51.2 °F 32.7 °F 30.05 in East 2.0 mph 8.0 mph 49% 0.00 in 0.00 W/m2
05:09 51.2 °F 32.7 °F 30.05 in East 4.0 mph 11.0 mph 49% 0.00 in 0.00 W/m2
05:15 51.2 °F 32.7 °F 30.06 in Calm   8.0 mph 49% 0.00 in 0.00 W/m2
05:19 51.2 °F 32.7 °F 30.06 in ESE 6.0 mph 8.0 mph 49% 0.00 in 0.00 W/m2
05:25 51.2 °F 32.7 °F 30.06 in East 5.0 mph 11.0 mph 49% 0.00 in 0.00 W/m2
05:30 51.1 °F 32.6 °F 30.06 in East 4.0 mph 9.0 mph 49% 0.00 in 0.00 W/m2
05:35 51.2 °F 32.7 °F 30.06 in East 1.0 mph 11.0 mph 49% 0.00 in 0.00 W/m2
05:40 51.1 °F 32.6 °F 30.06 in ESE 4.0 mph 13.0 mph 49% 0.00 in 0.00 W/m2
05:45 51.2 °F 32.7 °F 30.06 in East 6.0 mph 9.0 mph 49% 0.00 in 0.00 W/m2
05:50 51.1 °F 32.6 °F 30.05 in Calm   11.0 mph 49% 0.00 in 0.00 W/m2
05:55 51.2 °F 32.7 °F 30.05 in Calm   11.0 mph 49% 0.00 in 0.00 W/m2
06:00 51.1 °F 32.6 °F 30.05 in Calm   13.0 mph 49% 0.00 in 0.00 W/m2
06:05 51.1 °F 32.6 °F 30.05 in East 7.0 mph 11.0 mph 49% 0.00 in 0.00 W/m2
06:10 51.1 °F 32.6 °F 30.05 in Calm   8.0 mph 49% 0.00 in 0.00 W/m2
06:15 51.1 °F 32.6 °F 30.05 in East 4.0 mph 8.0 mph 49% 0.00 in 0.00 W/m2
06:20 51.0 °F 32.5 °F 30.06 in East 2.0 mph 14.0 mph 49% 0.00 in 0.00 W/m2
06:25 51.0 °F 32.5 °F 30.06 in ESE 1.0 mph 9.0 mph 49% 0.00 in 0.00 W/m2
06:30 51.0 °F 32.5 °F 30.06 in Calm   9.0 mph 49% 0.00 in 0.00 W/m2
06:35 51.0 °F 32.5 °F 30.06 in Calm   13.0 mph 49% 0.00 in 0.00 W/m2
06:40 51.0 °F 32.5 °F 30.06 in East 7.0 mph 13.0 mph 49% 0.00 in 0.00 W/m2
06:45 51.0 °F 32.5 °F 30.06 in Calm   9.0 mph 49% 0.00 in 0.00 W/m2
06:50 51.0 °F 32.5 °F 30.06 in ESE 7.0 mph 14.0 mph 49% 0.00 in 0.00 W/m2
06:55 51.0 °F 32.5 °F 30.06 in Calm   12.0 mph 49% 0.00 in 0.00 W/m2
07:00 51.1 °F 32.6 °F 30.06 in East 9.0 mph 13.0 mph 49% 0.00 in 5.00 W/m2
07:05 51.1 °F 32.6 °F 30.06 in Calm   14.0 mph 49% 0.00 in 7.00 W/m2
07:10 51.1 °F 32.6 °F 30.06 in Calm   11.0 mph 49% 0.00 in 9.00 W/m2
07:15 51.2 °F 32.7 °F 30.06 in East 6.0 mph 14.0 mph 49% 0.00 in 12.00 W/m2
07:20 51.2 °F 32.7 °F 30.07 in Calm   16.0 mph 49% 0.00 in 16.00 W/m2
07:25 51.2 °F 32.7 °F 30.07 in Calm   13.0 mph 49% 0.00 in 19.00 W/m2
07:30 51.2 °F 32.2 °F 30.07 in ESE 2.0 mph 12.0 mph 48% 0.00 in 26.00 W/m2
07:35 51.2 °F 32.2 °F 30.06 in East 1.0 mph 13.0 mph 48% 0.00 in 37.00 W/m2
07:40 51.3 °F 32.3 °F 30.06 in Calm   13.0 mph 48% 0.00 in 49.00 W/m2
07:45 51.4 °F 32.4 °F 30.06 in Calm   16.0 mph 48% 0.00 in 63.00 W/m2
07:50 51.5 °F 32.5 °F 30.06 in Calm   12.0 mph 48% 0.00 in 77.00 W/m2
07:55 51.6 °F 32.6 °F 30.07 in Calm   14.0 mph 48% 0.00 in 95.00 W/m2
08:00 51.7 °F 32.7 °F 30.06 in Calm   13.0 mph 48% 0.00 in 114.00 W/m2
08:05 51.9 °F 32.8 °F 30.06 in ESE 1.0 mph 16.0 mph 48% 0.00 in 134.00 W/m2
08:10 52.0 °F 32.9 °F 30.06 in ESE 13.0 mph 16.0 mph 48% 0.00 in 151.00 W/m2
08:15 52.1 °F 33.0 °F 30.07 in ESE 1.0 mph 13.0 mph 48% 0.00 in 176.00 W/m2
08:20 52.3 °F 33.2 °F 30.07 in ESE 7.0 mph 11.0 mph 48% 0.00 in 190.00 W/m2
08:25 52.5 °F 33.4 °F 30.07 in East 2.0 mph 14.0 mph 48% 0.00 in 211.00 W/m2
08:30 52.6 °F 33.0 °F 30.07 in Calm   15.0 mph 47% 0.00 in 229.00 W/m2
08:35 52.8 °F 33.7 °F 30.07 in East 9.0 mph 14.0 mph 48% 0.00 in 257.00 W/m2
08:40 53.0 °F 33.8 °F 30.07 in ESE 1.0 mph 13.0 mph 48% 0.00 in 274.00 W/m2
08:45 53.2 °F 33.5 °F 30.07 in Calm   14.0 mph 47% 0.00 in 292.00 W/m2
08:50 53.5 °F 34.3 °F 30.07 in East 2.0 mph 13.0 mph 48% 0.00 in 311.00 W/m2
08:55 53.7 °F 34.0 °F 30.07 in Calm   13.0 mph 47% 0.00 in 327.00 W/m2
09:00 54.0 °F 34.2 °F 30.07 in Calm   11.0 mph 47% 0.00 in 345.00 W/m2
09:05 54.3 °F 34.5 °F 30.07 in East 6.0 mph 12.0 mph 47% 0.00 in 357.00 W/m2
09:11 54.6 °F 34.2 °F 30.07 in Calm   14.0 mph 46% 0.00 in 373.00 W/m2
09:16 54.8 °F 34.4 °F 30.07 in Calm   11.0 mph 46% 0.00 in 388.00 W/m2
09:21 55.0 °F 34.6 °F 30.07 in Calm   12.0 mph 46% 0.00 in 403.00 W/m2
09:26 55.3 °F 34.3 °F 30.07 in Calm   7.0 mph 45% 0.00 in 420.00 W/m2
09:31 55.6 °F 34.6 °F 30.07 in Calm   8.0 mph 45% 0.00 in 434.00 W/m2
09:36 56.0 °F 35.0 °F 30.07 in East 6.0 mph 6.0 mph 45% 0.00 in 448.00 W/m2
09:41 56.3 °F 35.2 °F 30.07 in Calm   8.0 mph 45% 0.00 in 462.00 W/m2
09:46 56.6 °F 35.5 °F 30.07 in Calm   8.0 mph 45% 0.00 in 473.00 W/m2
09:51 57.1 °F 36.0 °F 30.07 in Calm   1.0 mph 45% 0.00 in 489.00 W/m2
09:56 57.5 °F 36.9 °F 30.07 in Calm   5.0 mph 46% 0.00 in 503.00 W/m2
10:01 57.8 °F 36.6 °F 30.07 in East 1.0 mph 2.0 mph 45% 0.00 in 515.00 W/m2
10:06 58.2 °F 36.4 °F 30.07 in ESE 5.0 mph 6.0 mph 44% 0.00 in 527.00 W/m2
10:11 58.6 °F 37.3 °F 30.07 in Calm   6.0 mph 45% 0.00 in 541.00 W/m2
10:16 59.1 °F 36.7 °F 30.07 in Calm   7.0 mph 43% 0.00 in 554.00 W/m2
10:21 59.7 °F 36.0 °F 30.07 in ESE 2.0 mph 5.0 mph 41% 0.00 in 564.00 W/m2
10:26 60.1 °F 35.7 °F 30.07 in ESE 5.0 mph 7.0 mph 40% 0.00 in 575.00 W/m2
10:31 60.6 °F 35.5 °F 30.07 in Calm   7.0 mph 39% 0.00 in 587.00 W/m2
10:35 61.2 °F 34.7 °F 30.07 in Calm     37% 0.00 in 598.00 W/m2
10:41 61.6 °F 35.1 °F 30.07 in Calm   6.0 mph 37% 0.00 in 608.00 W/m2
10:46 61.9 °F 34.7 °F 30.07 in Calm     36% 0.00 in 619.00 W/m2
10:51 62.2 °F 35.6 °F 30.07 in Calm     37% 0.00 in 631.00 W/m2
10:56 62.7 °F 36.1 °F 30.07 in Calm     37% 0.00 in 636.00 W/m2
11:01 63.0 °F 34.9 °F 30.07 in Calm   2.0 mph 35% 0.00 in 647.00 W/m2
11:06 63.5 °F 35.4 °F 30.07 in Calm   6.0 mph 35% 0.00 in 656.00 W/m2
11:11 64.0 °F 35.8 °F 30.07 in Calm     35% 0.00 in 666.00 W/m2
11:16 64.3 °F 33.8 °F 30.06 in Calm   1.0 mph 32% 0.00 in 675.00 W/m2
11:21 64.6 °F 33.3 °F 30.06 in Calm     31% 0.00 in 682.00 W/m2
11:26 65.1 °F 35.3 °F 30.06 in Calm   2.0 mph 33% 0.00 in 687.00 W/m2
11:36 66.0 °F 35.3 °F 30.06 in WSW 4.0 mph 6.0 mph 32% 0.00 in 701.00 W/m2
11:46 66.5 °F 33.3 °F 30.06 in Calm   7.0 mph 29% 0.00 in 715.00 W/m2
11:51 66.5 °F 34.1 °F 30.06 in Calm   4.0 mph 30% 0.00 in 719.00 W/m2
11:56 66.6 °F 35.8 °F 30.06 in Calm   4.0 mph 32% 0.00 in 721.00 W/m2
12:01 66.7 °F 34.3 °F 30.06 in Calm   1.0 mph 30% 0.00 in 728.00 W/m2
12:05 66.8 °F 35.2 °F 30.06 in Calm   4.0 mph 31% 0.00 in 729.00 W/m2
12:11 66.9 °F 34.5 °F 30.06 in Calm     30% 0.00 in 733.00 W/m2
12:15 67.1 °F 34.7 °F 30.06 in Calm   3.0 mph 30% 0.00 in 738.00 W/m2
12:20 67.2 °F 34.8 °F 30.06 in WNW 2.0 mph 6.0 mph 30% 0.00 in 737.00 W/m2
12:26 67.4 °F 31.4 °F 30.06 in Calm   5.0 mph 26% 0.00 in 740.00 W/m2
12:30 67.5 °F 33.3 °F 30.05 in West 3.0 mph 4.0 mph 28% 0.00 in 742.00 W/m2
12:35 67.7 °F 33.5 °F 30.05 in Calm   4.0 mph 28% 0.00 in 742.00 W/m2
12:41 67.8 °F 32.6 °F 30.05 in Calm   6.0 mph 27% 0.00 in 742.00 W/m2
12:46 68.1 °F 32.9 °F 30.05 in Calm     27% 0.00 in 742.00 W/m2
12:51 68.2 °F 32.0 °F 30.05 in Calm   5.0 mph 26% 0.00 in 742.00 W/m2
12:56 68.3 °F 31.1 °F 30.05 in Calm   7.0 mph 25% 0.00 in 740.00 W/m2
13:01 68.3 °F 32.1 °F 30.05 in Calm   5.0 mph 26% 0.00 in 740.00 W/m2
13:06 68.5 °F 30.3 °F 30.04 in NW 4.0 mph 5.0 mph 24% 0.00 in 738.00 W/m2
13:11 68.7 °F 30.5 °F 30.04 in NW 3.0 mph 4.0 mph 24% 0.00 in 737.00 W/m2
13:16 68.9 °F 27.4 °F 30.04 in Calm   5.0 mph 21% 0.00 in 735.00 W/m2
13:21 69.1 °F 29.8 °F 30.04 in Calm     23% 0.00 in 731.00 W/m2
13:31 69.5 °F 33.1 °F 30.04 in West 1.0 mph 7.0 mph 26% 0.00 in 721.00 W/m2
13:36 69.7 °F 33.3 °F 30.04 in West 5.0 mph 6.0 mph 26% 0.00 in 721.00 W/m2
13:41 69.9 °F 34.4 °F 30.04 in Calm   10.0 mph 27% 0.00 in 714.00 W/m2
13:46 70.0 °F 35.4 °F 30.03 in Calm   6.0 mph 28% 0.00 in 708.00 W/m2
13:51 70.1 °F 34.6 °F 30.03 in Calm   6.0 mph 27% 0.00 in 705.00 W/m2
13:56 70.1 °F 35.5 °F 30.03 in Calm   4.0 mph 28% 0.00 in 698.00 W/m2
14:01 70.2 °F 35.6 °F 30.03 in Calm   7.0 mph 28% 0.00 in 694.00 W/m2
14:06 70.3 °F 35.7 °F 30.03 in WNW 3.0 mph 3.0 mph 28% 0.00 in 687.00 W/m2
14:11 70.5 °F 35.9 °F 30.03 in Calm   9.0 mph 28% 0.00 in 679.00 W/m2
14:15 70.4 °F 35.8 °F 30.03 in Calm   7.0 mph 28% 0.00 in 670.00 W/m2
14:20 70.4 °F 35.8 °F 30.03 in West 1.0 mph 7.0 mph 28% 0.00 in 663.00 W/m2
14:26 70.4 °F 35.8 °F 30.03 in Calm   8.0 mph 28% 0.00 in 657.00 W/m2
14:31 70.5 °F 35.9 °F 30.02 in Calm   4.0 mph 28% 0.00 in 649.00 W/m2
14:35 70.6 °F 36.8 °F 30.02 in Calm   6.0 mph 29% 0.00 in 642.00 W/m2
14:37 70.6 °F 35.9 °F 30.02 in Calm     28% 0.00 in 638.00 W/m2
14:41 70.6 °F 36.8 °F 30.02 in Calm     29% 0.00 in 633.00 W/m2
14:46 70.7 °F 36.0 °F 30.02 in Calm     28% 0.00 in 622.00 W/m2
14:51 70.6 °F 35.9 °F 30.02 in Calm     28% 0.00 in 615.00 W/m2
14:56 70.6 °F 35.9 °F 30.02 in West 3.0 mph 3.0 mph 28% 0.00 in 605.00 W/m2
15:01 70.7 °F 36.0 °F 30.02 in Calm     28% 0.00 in 592.00 W/m2
15:06 70.8 °F 36.1 °F 30.02 in WSW 5.0 mph 5.0 mph 28% 0.00 in 584.00 W/m2
15:11 70.8 °F 36.1 °F 30.02 in Calm     28% 0.00 in 575.00 W/m2
15:16 70.8 °F 35.2 °F 30.02 in Calm   3.0 mph 27% 0.00 in 561.00 W/m2
15:21 70.7 °F 35.1 °F 30.02 in Calm     27% 0.00 in 550.00 W/m2
15:26 70.6 °F 35.0 °F 30.02 in Calm     27% 0.00 in 540.00 W/m2
15:31 70.5 °F 34.9 °F 30.02 in Calm     27% 0.00 in 527.00 W/m2
15:36 70.6 °F 35.9 °F 30.01 in Calm     28% 0.00 in 513.00 W/m2
15:41 70.6 °F 35.9 °F 30.01 in WNW 1.0 mph 4.0 mph 28% 0.00 in 499.00 W/m2
15:46 70.7 °F 35.1 °F 30.01 in Calm     27% 0.00 in 487.00 W/m2
15:51 70.7 °F 35.1 °F 30.01 in Calm     27% 0.00 in 473.00 W/m2
15:56 70.7 °F 35.1 °F 30.01 in Calm     27% 0.00 in 462.00 W/m2
16:01 70.7 °F 35.1 °F 30.01 in Calm   4.0 mph 27% 0.00 in 450.00 W/m2
16:05 70.6 °F 35.9 °F 30.01 in Calm   6.0 mph 28% 0.00 in 434.00 W/m2
16:10 70.6 °F 35.0 °F 30.01 in Calm   6.0 mph 27% 0.00 in 418.00 W/m2
16:15 70.7 °F 36.0 °F 30.01 in Calm   5.0 mph 28% 0.00 in 406.00 W/m2
16:20 70.7 °F 36.0 °F 30.01 in Calm   5.0 mph 28% 0.00 in 394.00 W/m2
16:25 70.7 °F 36.0 °F 30.01 in Calm   7.0 mph 28% 0.00 in 380.00 W/m2
16:30 70.6 °F 35.9 °F 30.01 in Calm   9.0 mph 28% 0.00 in 360.00 W/m2
16:35 70.5 °F 35.9 °F 30.01 in Calm   7.0 mph 28% 0.00 in 348.00 W/m2
16:45 70.1 °F 35.5 °F 30.01 in NW 3.0 mph 8.0 mph 28% 0.00 in 313.00 W/m2
16:50 69.9 °F 35.3 °F 30.01 in Calm   9.0 mph 28% 0.00 in 299.00 W/m2
16:55 69.7 °F 35.2 °F 30.01 in Calm   7.0 mph 28% 0.00 in 281.00 W/m2
17:00 69.6 °F 36.8 °F 30.01 in Calm   8.0 mph 30% 0.00 in 269.00 W/m2
17:05 69.5 °F 36.7 °F 30.01 in Calm   6.0 mph 30% 0.00 in 253.00 W/m2
17:10 69.2 °F 37.3 °F 30.02 in Calm   2.0 mph 31% 0.00 in 236.00 W/m2
17:15 68.9 °F 36.2 °F 30.01 in Calm   7.0 mph 30% 0.00 in 216.00 W/m2
17:20 68.5 °F 36.7 °F 30.01 in Calm   6.0 mph 31% 0.00 in 200.00 W/m2
17:25 68.3 °F 36.5 °F 30.01 in Calm     31% 0.00 in 181.00 W/m2
17:30 68.0 °F 37.1 °F 30.01 in West 1.0 mph 2.0 mph 32% 0.00 in 160.00 W/m2
17:35 67.7 °F 36.8 °F 30.01 in Calm   5.0 mph 32% 0.00 in 146.00 W/m2
17:40 67.6 °F 37.5 °F 30.01 in Calm   1.0 mph 33% 0.00 in 125.00 W/m2
17:45 67.3 °F 37.2 °F 30.02 in Calm     33% 0.00 in 105.00 W/m2
17:50 67.2 °F 37.9 °F 30.02 in Calm   1.0 mph 34% 0.00 in 88.00 W/m2
17:55 67.0 °F 37.7 °F 30.02 in Calm     34% 0.00 in 72.00 W/m2
18:00 66.8 °F 37.6 °F 30.02 in Calm     34% 0.00 in 56.00 W/m2
18:05 66.5 °F 38.0 °F 30.02 in Calm     35% 0.00 in 44.00 W/m2
18:10 66.3 °F 38.6 °F 30.02 in Calm   1.0 mph 36% 0.00 in 33.00 W/m2
18:15 65.9 °F 38.2 °F 30.02 in Calm     36% 0.00 in 26.00 W/m2
18:25 65.2 °F 39.0 °F 30.02 in Calm     38% 0.00 in 14.00 W/m2
18:31 64.8 °F 38.6 °F 30.02 in Calm   4.0 mph 38% 0.00 in 12.00 W/m2
18:36 64.5 °F 38.3 °F 30.02 in Calm   5.0 mph 38% 0.00 in 9.00 W/m2
18:41 64.3 °F 38.2 °F 30.02 in WNW 4.0 mph 6.0 mph 38% 0.00 in 7.00 W/m2
18:46 64.1 °F 38.0 °F 30.02 in Calm   1.0 mph 38% 0.00 in 0.00 W/m2
18:51 63.8 °F 37.7 °F 30.02 in Calm     38% 0.00 in 0.00 W/m2
18:56 63.5 °F 37.5 °F 30.02 in Calm   5.0 mph 38% 0.00 in 0.00 W/m2
19:00 63.2 °F 37.9 °F 30.02 in Calm   3.0 mph 39% 0.00 in 0.00 W/m2
19:06 63.0 °F 37.7 °F 30.02 in Calm     39% 0.00 in 0.00 W/m2
19:11 62.7 °F 37.4 °F 30.02 in NW 4.0 mph 5.0 mph 39% 0.00 in 0.00 W/m2
19:16 62.4 °F 37.8 °F 30.03 in NW 4.0 mph 5.0 mph 40% 0.00 in 0.00 W/m2
19:21 62.2 °F 37.6 °F 30.03 in NNW 2.0 mph 5.0 mph 40% 0.00 in 0.00 W/m2
19:26 62.0 °F 37.4 °F 30.03 in Calm   5.0 mph 40% 0.00 in 0.00 W/m2
19:30 61.8 °F 37.2 °F 30.03 in Calm     40% 0.00 in 0.00 W/m2
19:36 61.5 °F 37.0 °F 30.03 in NNW 2.0 mph 9.0 mph 40% 0.00 in 0.00 W/m2
19:41 61.2 °F 37.3 °F 30.02 in Calm   6.0 mph 41% 0.00 in 0.00 W/m2
19:46 60.9 °F 37.1 °F 30.03 in Calm     41% 0.00 in 0.00 W/m2
19:50 60.7 °F 37.5 °F 30.03 in Calm     42% 0.00 in 0.00 W/m2
20:01 60.3 °F 37.1 °F 30.03 in North 4.0 mph 4.0 mph 42% 0.00 in 0.00 W/m2
20:06 60.1 °F 37.5 °F 30.03 in Calm   4.0 mph 43% 0.00 in 0.00 W/m2
20:14 59.8 °F 37.3 °F 30.03 in Calm     43% 0.00 in 0.00 W/m2
20:19 59.7 °F 37.2 °F 30.03 in Calm     43% 0.00 in 0.00 W/m2
20:24 59.6 °F 37.1 °F 30.03 in Calm   6.0 mph 43% 0.00 in 0.00 W/m2
20:25 59.5 °F 37.0 °F 30.03 in Calm   6.0 mph 43% 0.00 in 0.00 W/m2
20:26 59.5 °F 37.0 °F 30.03 in Calm   6.0 mph 43% 0.00 in 0.00 W/m2
20:31 59.4 °F 36.9 °F 30.03 in Calm     43% 0.00 in 0.00 W/m2
20:36 59.4 °F 36.9 °F 30.03 in NNE 1.0 mph 2.0 mph 43% 0.00 in 0.00 W/m2
20:51 59.3 °F 36.8 °F 30.03 in Calm     43% 0.00 in 0.00 W/m2
20:56 59.3 °F 36.8 °F 30.03 in Calm     43% 0.00 in 0.00 W/m2
21:06 59.2 °F 36.7 °F 30.03 in Calm     43% 0.00 in 0.00 W/m2
21:11 59.2 °F 36.7 °F 30.04 in Calm     43% 0.00 in 0.00 W/m2
21:16 59.1 °F 36.7 °F 30.04 in NNE 2.0 mph 2.0 mph 43% 0.00 in 0.00 W/m2
21:21 59.0 °F 37.1 °F 30.03 in NE 2.0 mph 4.0 mph 44% 0.00 in 0.00 W/m2
21:26 58.8 °F 37.0 °F 30.03 in Calm     44% 0.00 in 0.00 W/m2
21:31 58.7 °F 36.9 °F 30.03 in Calm     44% 0.00 in 0.00 W/m2
21:41 58.7 °F 36.9 °F 30.04 in Calm     44% 0.00 in 0.00 W/m2
21:46 58.7 °F 36.9 °F 30.04 in Calm   4.0 mph 44% 0.00 in 0.00 W/m2
21:51 58.7 °F 36.9 °F 30.04 in Calm     44% 0.00 in 0.00 W/m2
21:56 58.7 °F 36.9 °F 30.04 in ENE 3.0 mph 7.0 mph 44% 0.00 in 0.00 W/m2
21:57 58.7 °F 36.9 °F 30.04 in Calm   7.0 mph 44% 0.00 in 0.00 W/m2
22:02 58.7 °F 36.9 °F 30.04 in Calm     44% 0.00 in 0.00 W/m2
22:07 58.7 °F 36.9 °F 30.04 in Calm     44% 0.00 in 0.00 W/m2
22:12 58.7 °F 36.9 °F 30.03 in Calm   2.0 mph 44% 0.00 in 0.00 W/m2
22:17 58.7 °F 36.9 °F 30.04 in Calm   5.0 mph 44% 0.00 in 0.00 W/m2
22:22 58.6 °F 36.8 °F 30.04 in Calm   5.0 mph 44% 0.00 in 0.00 W/m2
22:27 58.6 °F 36.8 °F 30.04 in Calm   7.0 mph 44% 0.00 in 0.00 W/m2
22:32 58.6 °F 36.8 °F 30.04 in Calm     44% 0.00 in 0.00 W/m2
22:37 58.5 °F 36.7 °F 30.04 in East 2.0 mph 7.0 mph 44% 0.00 in 0.00 W/m2
22:42 58.5 °F 36.7 °F 30.04 in East 2.0 mph 7.0 mph 44% 0.00 in 0.00 W/m2
22:47 58.5 °F 36.7 °F 30.04 in Calm   7.0 mph 44% 0.00 in 0.00 W/m2
22:52 58.4 °F 36.6 °F 30.04 in East 2.0 mph 6.0 mph 44% 0.00 in 0.00 W/m2
22:57 58.4 °F 36.6 °F 30.04 in Calm   7.0 mph 44% 0.00 in 0.00 W/m2
23:02 58.4 °F 36.6 °F 30.04 in East 1.0 mph 6.0 mph 44% 0.00 in 0.00 W/m2
23:07 58.4 °F 36.6 °F 30.04 in East 1.0 mph 5.0 mph 44% 0.00 in 0.00 W/m2
23:12 58.4 °F 36.6 °F 30.04 in East 2.0 mph 7.0 mph 44% 0.00 in 0.00 W/m2
23:17 58.3 °F 36.5 °F 30.04 in East 5.0 mph 8.0 mph 44% 0.00 in 0.00 W/m2
23:22 58.3 °F 36.5 °F 30.04 in Calm   5.0 mph 44% 0.00 in 0.00 W/m2
23:27 58.2 °F 36.4 °F 30.04 in ESE 6.0 mph 6.0 mph 44% 0.00 in 0.00 W/m2
23:32 58.2 °F 36.4 °F 30.04 in ESE 1.0 mph 8.0 mph 44% 0.00 in 0.00 W/m2
23:37 58.2 °F 36.4 °F 30.04 in ESE 5.0 mph 11.0 mph 44% 0.00 in 0.00 W/m2
23:42 58.1 °F 36.3 °F 30.04 in ESE 5.0 mph 11.0 mph 44% 0.00 in 0.00 W/m2
23:47 58.1 °F 36.3 °F 30.04 in East 6.0 mph 11.0 mph 44% 0.00 in 0.00 W/m2
23:52 58.0 °F 36.2 °F 30.04 in Calm   7.0 mph 44% 0.00 in 0.00 W/m2
23:53 58.0 °F 36.2 °F 30.04 in Calm   7.0 mph 44% 0.00 in 0.00 W/m2
23:58 58.0 °F 36.2 °F 30.05 in ESE 7.0 mph 11.0 mph 44% 0.00 in 0.00 W/m2
Foresthill Weather
 WU-history PHP script courtesy of   Juneau County Weather.
powered by Cumulus v1.9.3 (1059)
Ambient Weather VWS v14.00
Top Contact Website Map Copyright © 2007 - 2018 Foresthillweather.com Never base important decisions on this or any weather information obtained from the Internet